This demonstration page uses our WeatherBlox Daily Observations layout. Learn more.

Left ArrowRight Arrow

Hourly Observations for August 3, 2021

Temp ( °F °C ) Dew Point ( °F °C ) Humidity (%) Winds ( mph kmh ) Pressure ( in mb ) Visibility ( mi km ) Precip ( " mm )
12:15 am 00:15 Clear 55 13 54 12.1 94 94 Calm 30.12 1020 10 16 0.00 0.00
12:35 am 00:35 Clear 55 12.6 54 12 96 96 Calm 30.13 1020 10 16 0.00 0.00
12:55 am 00:55 Clear 54 12.2 53 11.6 96 96 Calm 30.13 1020 10 16 0.00 0.00
1:15 am 01:15 Clear 54 12 52 11.2 95 95 Calm 30.12 1020 10 16 0.00 0.00
1:35 am 01:35 Clear 53 11.8 52 11.2 96 96 Calm 30.13 1020 10 16 0.00 0.00
1:55 am 01:55 Clear 54 12.4 53 11.7 96 96 N 3 6 30.13 1020 10 16 0.00 0.00
2:15 am 02:15 Clear 54 12.1 53 11.5 96 96 Calm 30.12 1020 10 16 0.00 0.00
2:35 am 02:35 Clear 54 12.1 53 11.4 96 96 Calm 30.12 1020 10 16 0.00 0.00
2:55 am 02:55 Clear 54 12.1 53 11.5 96 96 Calm 30.11 1020 10 16 0.00 0.00
3:15 am 03:15 Clear 53 11.7 52 11.1 96 96 Calm 30.11 1020 10 16 0.00 0.00
3:35 am 03:35 Clear 52 11.3 51 10.8 97 97 Calm 30.12 1020 10 16 0.00 0.00
3:55 am 03:55 Clear 53 11.8 52 11.1 96 96 Calm 30.11 1020 10 16 0.00 0.00
4:15 am 04:15 Clear 52 11.2 51 10.7 97 97 Calm 30.12 1020 10 16 0.00 0.00
4:35 am 04:35 Partly Cloudy 53 11.5 52 11 97 97 Calm 30.12 1020 10 16 0.00 0.00
4:55 am 04:55 Mostly Cloudy 52 11.3 51 10.8 97 97 Calm 30.12 1020 10 16 0.00 0.00
5:15 am 05:15 Cloudy 54 12.1 53 11.6 97 97 Calm 30.11 1020 10 16 0.00 0.00
5:35 am 05:35 Cloudy 55 12.6 54 12 96 96 Calm 30.11 1020 10 16 0.00 0.00
5:55 am 05:55 Cloudy 54 12.2 53 11.8 97 97 Calm 30.11 1020 10 16 0.00 0.00
6:15 am 06:15 Partly Cloudy 53 11.9 53 11.5 97 97 Calm 30.11 1020 10 16 0.00 0.00
6:35 am 06:35 Partly Cloudy 53 11.7 52 11.1 96 96 Calm 30.12 1020 10 16 0.00 0.00
6:55 am 06:55 Sunny 53 11.8 52 11.2 96 96 N 3 6 30.12 1020 10 16 0.00 0.00
7:15 am 07:15 Sunny 53 11.7 52 11.1 96 96 Calm 30.13 1020 10 16 0.00 0.00
7:35 am 07:35 Sunny 54 12.1 53 11.6 97 97 N 3 6 30.13 1020 10 16 0.00 0.00
7:55 am 07:55 Sunny 56 13.5 55 12.6 94 94 Calm 30.13 1020 10 16 0.00 0.00
8:15 am 08:15 Sunny 58 14.6 55 13 90 90 NNE 3 6 30.12 1020 10 16 0.00 0.00
8:35 am 08:35 Sunny 60 15.8 56 13.6 87 87 Calm 30.13 1020 10 16 0.00 0.00
8:55 am 08:55 Sunny 63 17.1 57 13.9 82 82 NE 3 6 30.13 1020 10 16 0.00 0.00
9:15 am 09:15 Partly Cloudy 64 18 56 13.6 76 76 NNE 3 6 30.12 1020 10 16 0.00 0.00
9:35 am 09:35 Partly Cloudy 66 18.8 57 14.1 74 74 NE 3 6 30.12 1020 10 16 0.00 0.00
9:55 am 09:55 Sunny 67 19.7 57 13.9 69 69 E 5 7 30.12 1020 10 16 0.00 0.00
10:15 am 10:15 Sunny 69 20.5 57 14 66 66 Calm 30.11 1020 10 16 0.00 0.00
10:35 am 10:35 Sunny 71 21.5 57 13.7 61 61 E 3 6 30.11 1020 10 16 0.00 0.00
10:55 am 10:55 Sunny 72 22.2 56 13.5 58 58 E 5 7 30.10 1019 10 16 0.00 0.00
11:15 am 11:15 Sunny 73 22.6 56 13.6 57 57 ENE 3 6 30.10 1019 10 16 0.00 0.00
11:35 am 11:35 Sunny 73 23 56 13.4 55 55 E 5 7 30.10 1019 10 16 0.00 0.00
11:55 am 11:55 Sunny 74 23.3 56 13.3 54 54 ENE 6 9 30.10 1019 10 16 0.00 0.00
12:15 pm 12:15 Sunny 74 23.5 55 12.9 51 51 E 5 7 30.09 1019 10 16 0.00 0.00
12:35 pm 12:35 Partly Cloudy 75 24 55 12.8 50 50 Calm 30.09 1019 10 16 0.00 0.00
12:55 pm 12:55 Mostly Cloudy 75 24.1 55 13 50 50 NNE 6 9 30.09 1019 10 16 0.00 0.00
1:15 pm 13:15 Partly Cloudy 76 24.2 55 12.6 48 48 Calm 30.09 1019 10 16 0.00 0.00
1:35 pm 13:35 Partly Cloudy 74 23.2 53 11.8 49 49 Calm 30.09 1019 10 16 0.00 0.00
1:55 pm 13:55 Mostly Cloudy 74 23.2 52 11.1 47 47 NE 5 7 30.09 1019 10 16 0.00 0.00
2:15 pm 14:15 Mostly Cloudy 75 24 55 12.5 49 49 NNE 6 9 30.07 1018 10 16 0.00 0.00
2:35 pm 14:35 Partly Cloudy 76 24.4 54 12.3 47 47 NE 7 11 30.07 1018 10 16 0.00 0.00
2:55 pm 14:55 Partly Cloudy 76 24.5 53 11.9 45 45 ENE 3 6 30.07 1018 10 16 0.00 0.00
3:15 pm 15:15 Partly Cloudy 76 24.7 53 11.9 45 45 ENE 7 11 30.06 1018 10 16 0.00 0.00
3:35 pm 15:35 Partly Cloudy 77 24.9 55 12.7 47 47 NNE 7 11 30.06 1018 10 16 0.00 0.00
3:55 pm 15:55 Partly Cloudy 76 24.7 53 11.9 45 45 NNE 3 6 30.05 1018 10 16 0.00 0.00
4:15 pm 16:15 Sunny 76 24.4 54 12.1 46 46 NNE 6 9 30.05 1018 10 16 0.00 0.00
4:35 pm 16:35 Sunny 76 24.6 54 12.4 47 47 N 5 7 30.05 1018 10 16 0.00 0.00
4:55 pm 16:55 Sunny 76 24.6 53 11.7 45 45 N 7 11 30.05 1018 10 16 0.00 0.00
5:15 pm 17:15 Sunny 76 24.6 53 11.8 45 45 NNE 3 6 30.04 1017 10 16 0.00 0.00
5:35 pm 17:35 Sunny 76 24.7 54 12.1 45 45 NNE 9 15 30.04 1017 10 16 0.00 0.00
5:55 pm 17:55 Sunny 76 24.5 53 11.5 44 44 N 5 7 30.04 1017 10 16 0.00 0.00
6:15 pm 18:15 Sunny 76 24.5 54 12.1 46 46 NNE 5 7 30.04 1017 10 16 0.00 0.00
6:35 pm 18:35 Sunny 76 24.2 54 12 47 47 NNE 5 7 30.04 1017 10 16 0.00 0.00
6:55 pm 18:55 Sunny 75 24 51 10.8 44 44 NNE 3 6 30.04 1017 10 16 0.00 0.00
7:15 pm 19:15 Sunny 75 23.8 52 11.1 45 45 NE 6 9 30.04 1017 10 16 0.00 0.00
7:35 pm 19:35 Sunny 74 23.2 54 12 49 49 NNE 3 6 30.05 1017 10 16 0.00 0.00
7:55 pm 19:55 Sunny 73 22.5 56 13.3 56 56 N 3 6 30.05 1018 10 16 0.00 0.00
8:15 pm 20:15 Sunny 70 21.3 58 14.2 64 64 N 3 6 30.05 1018 10 16 0.00 0.00
8:35 pm 20:35 Sunny 67 19.7 60 15.7 78 78 NNE 3 6 30.06 1018 10 16 0.00 0.00
8:55 pm 20:55 Sunny 65 18.2 59 15 82 82 N 3 6 30.06 1018 10 16 0.00 0.00
9:15 pm 21:15 Clear 63 17 59 14.8 87 87 N 3 6 30.08 1019 10 16 0.00 0.00
9:35 pm 21:35 Clear 61 16.3 58 14.5 89 89 N 3 6 30.08 1019 10 16 0.00 0.00
9:55 pm 21:55 Clear 60 15.7 58 14.2 91 91 Calm 30.09 1019 10 16 0.00 0.00
10:15 pm 22:15 Clear 59 15.2 57 13.9 92 92 NNW 3 6 30.09 1019 10 16 0.00 0.00
10:35 pm 22:35 Clear 58 14.7 56 13.6 93 93 Calm 30.10 1019 10 16 0.00 0.00
10:55 pm 22:55 Clear 57 14 56 13.2 95 95 Calm 30.11 1020 10 16 0.00 0.00
11:15 pm 23:15 Clear 57 13.7 55 12.8 94 94 Calm 30.11 1020 10 16 0.00 0.00
11:35 pm 23:35 Clear 56 13.5 55 12.6 94 94 Calm 30.11 1020 10 16 0.00 0.00
11:55 pm 23:55 Clear 56 13.2 55 12.5 96 96 Calm 30.11 1020 10 16 0.00 0.00

Powered by AerisWeather